Weather History for Windsor Locks, CT

Change the Weather History Date:

Wednesday, April 9, 2014

  Actual Average Record
Temperature  
Mean Temperature 49 °F 47 °F  
Max Temperature 59 °F 58 °F 85 °F (1991)
Min Temperature 38 °F 36 °F 23 °F (1977)
Degree Days  
Heating Degree Days 16 18  
Month to date heating degree days 158 178  
Since 1 July heating degree days 5876 5459  
Cooling Degree Days 0 0  
Month to date cooling degree days 0 0  
Year to date cooling degree days 0 0  
Moisture  
Dew Point 25 °F    
Average Humidity 49    
Maximum Humidity 82    
Minimum Humidity 16    
Precipitation  
Precipitation 0.00 in 0.13 in 1.80 in (1980)
Month to date precipitation 0.80 1.13  
Year to date precipitation 12.89 10.87  
Snow  
Snow 0.00 in 0.10 in 6.00 in (1907)
Month to date snowfall 0.0 0.7  
Since 1 July snowfall 50.9 39.8  
Snow Depth 0.00 in    
Sea Level Pressure  
Sea Level Pressure 29.72 in    
Wind  
Wind Speed 13 mph (NW)    
Max Wind Speed 30 mph    
Max Gust Speed 39 mph    
Visibility 10 miles    
Events      
T = Trace of Precipitation, MM = Missing Value Source: NWS Daily Summary

Daily Weather History Graph

Daily Weather History Graph

Search for Another Location

Airport:

Trip Planner

Search our weather history database for the weather conditions in past years. The results will help you decide how hot, cold, wet, or windy it might be!

Date:

Astronomy

Apr. 09, 2014 Rise Set
Actual Time 6:20 AM EDT 7:25 PM EDT
Civil Twilight 5:51 AM EDT 7:53 PM EDT
Nautical Twilight 5:17 AM EDT 8:27 PM EDT
Astronomical Twilight 4:41 AM EDT 9:03 PM EDT
Moon 2:06 PM EDT (4/9) 3:12 AM EDT (4/9)
Length of Visible Light 14h 02m
Length of Day
13h 05m
Waxing Gibbous, 71% of the Moon is Illuminated
Apr 9
Waxing Gibbous
Apr 15
Full
Apr 22
Last Quarter
Apr 29
New
May 6
First Quarter

Hourly Weather History & Observations

Time (EDT) Temp. Windchill Dew Point Humidity Pressure Visibility Wind Dir Wind Speed Gust Speed Precip Events Conditions
12:51 AM 46.0 °F 41.4 °F 33.1 °F 61% 29.60 in 10.0 mi NNW 9.2 mph - N/A   Mostly Cloudy
1:51 AM 45.0 °F 40.6 °F 33.1 °F 63% 29.60 in 10.0 mi WNW 8.1 mph - N/A   Mostly Cloudy
2:51 AM 44.1 °F 38.6 °F 33.1 °F 65% 29.59 in 10.0 mi NW 10.4 mph - N/A   Clear
3:51 AM 43.0 °F 38.2 °F 33.1 °F 68% 29.57 in 10.0 mi NW 8.1 mph - N/A   Clear
4:51 AM 41.0 °F 38.0 °F 33.1 °F 73% 29.60 in 10.0 mi WNW 4.6 mph - N/A   Clear
5:51 AM 39.0 °F 36.8 °F 32.0 °F 76% 29.61 in 10.0 mi WNW 3.5 mph - N/A   Partly Cloudy
6:51 AM 37.9 °F 34.4 °F 32.0 °F 79% 29.65 in 10.0 mi West 4.6 mph - N/A   Partly Cloudy
7:51 AM 45.0 °F 43.5 °F 34.0 °F 65% 29.66 in 10.0 mi West 3.5 mph - N/A   Partly Cloudy
8:51 AM 48.9 °F - 34.0 °F 56% 29.66 in 10.0 mi WNW 10.4 mph - N/A   Partly Cloudy
9:51 AM 53.1 °F - 33.1 °F 47% 29.66 in 10.0 mi NNW 13.8 mph - N/A   Partly Cloudy
10:51 AM 54.0 °F - 32.0 °F 43% 29.68 in 10.0 mi NW 15.0 mph 26.5 mph N/A   Scattered Clouds
11:51 AM 55.0 °F - 30.0 °F 38% 29.69 in 10.0 mi NW 16.1 mph 32.2 mph N/A   Partly Cloudy
12:51 PM 54.0 °F - 27.0 °F 35% 29.69 in 10.0 mi NNW 19.6 mph 28.8 mph N/A   Mostly Cloudy
1:51 PM 55.9 °F - 25.0 °F 30% 29.69 in 10.0 mi NW 17.3 mph 23.0 mph N/A   Mostly Cloudy
2:51 PM 57.9 °F - 19.0 °F 22% 29.69 in 10.0 mi WNW 25.3 mph 33.4 mph N/A   Scattered Clouds
3:51 PM 57.0 °F - 19.0 °F 23% 29.71 in 10.0 mi NW 18.4 mph 34.5 mph N/A   Partly Cloudy
4:51 PM 55.0 °F - 17.1 °F 23% 29.72 in 10.0 mi NW 23.0 mph 39.1 mph N/A   Partly Cloudy
5:51 PM 53.6 °F - 8.6 °F 16% 29.75 in 10.0 mi NW 26.5 mph 38.0 mph N/A   Partly Cloudy
6:51 PM 50.0 °F - 10.0 °F 20% 29.79 in 10.0 mi NW 17.3 mph 29.9 mph N/A   Partly Cloudy
7:51 PM 46.9 °F - 10.0 °F 22% 29.84 in 10.0 mi NW 12.7 mph 21.9 mph N/A   Clear
8:51 PM 45.0 °F 38.9 °F 10.9 °F 25% 29.90 in 10.0 mi NW 12.7 mph - N/A   Clear
9:51 PM 43.0 °F 37.2 °F 12.9 °F 30% 29.94 in 10.0 mi NW 10.4 mph - N/A   Clear
10:51 PM 39.9 °F 34.5 °F 16.0 °F 38% 29.97 in 10.0 mi WNW 8.1 mph - N/A   Clear
11:51 PM 39.9 °F 35.8 °F 16.0 °F 38% 30.00 in 10.0 mi NNW 5.8 mph - N/A   Clear